Year,Month,Day,Hour,Minute,Value (Times are PST for temperature in C)
2019,05,08,00,00,13.90
2019,05,08,00,01,13.90
2019,05,08,00,02,13.90
2019,05,08,00,03,13.80
2019,05,08,00,04,13.80
2019,05,08,00,05,13.80
2019,05,08,00,06,13.70
2019,05,08,00,07,13.70
2019,05,08,00,08,13.60
2019,05,08,00,09,13.60
2019,05,08,00,10,13.60
2019,05,08,00,11,13.50
2019,05,08,00,12,13.50
2019,05,08,00,13,13.40
2019,05,08,00,14,13.40
2019,05,08,00,15,13.30
2019,05,08,00,16,13.30
2019,05,08,00,17,13.30
2019,05,08,00,18,13.30
2019,05,08,00,19,13.20
2019,05,08,00,20,13.20
2019,05,08,00,21,13.20
2019,05,08,00,22,13.20
2019,05,08,00,23,13.20
2019,05,08,00,24,13.20
2019,05,08,00,25,13.20
2019,05,08,00,26,13.20
2019,05,08,00,27,13.20
2019,05,08,00,28,13.10
2019,05,08,00,29,13.10
2019,05,08,00,30,13.10
2019,05,08,00,31,13.10
2019,05,08,00,32,13.10
2019,05,08,00,33,13.10
2019,05,08,00,34,13.10
2019,05,08,00,35,13.10
2019,05,08,00,36,13.10
2019,05,08,00,37,13.10
2019,05,08,00,38,13.10
2019,05,08,00,39,13.10
2019,05,08,00,40,13.10
2019,05,08,00,41,13.20
2019,05,08,00,42,13.20
2019,05,08,00,43,13.20
2019,05,08,00,44,13.10
2019,05,08,00,45,13.10
2019,05,08,00,46,13.10
2019,05,08,00,47,13.10
2019,05,08,00,48,13.10
2019,05,08,00,49,13.10
2019,05,08,00,50,13.00
2019,05,08,00,51,13.00
2019,05,08,00,52,13.00
2019,05,08,00,53,12.90
2019,05,08,00,54,12.90
2019,05,08,00,55,12.80
2019,05,08,00,56,12.70
2019,05,08,00,57,12.60
2019,05,08,00,58,12.50
2019,05,08,00,59,12.40
2019,05,08,01,00,12.30
2019,05,08,01,01,12.20
2019,05,08,01,02,12.10
2019,05,08,01,03,12.00
2019,05,08,01,04,11.90
2019,05,08,01,05,11.90
2019,05,08,01,06,11.80
2019,05,08,01,07,11.70
2019,05,08,01,08,11.70
2019,05,08,01,09,11.60
2019,05,08,01,10,11.60
2019,05,08,01,11,11.50
2019,05,08,01,12,11.40
2019,05,08,01,13,11.40
2019,05,08,01,14,11.40
2019,05,08,01,15,11.30
2019,05,08,01,16,11.30
2019,05,08,01,17,11.30
2019,05,08,01,18,11.30
2019,05,08,01,19,11.20
2019,05,08,01,20,11.20
2019,05,08,01,21,11.20
2019,05,08,01,22,11.20
2019,05,08,01,23,11.20
2019,05,08,01,24,11.20
2019,05,08,01,25,11.20
2019,05,08,01,26,11.20
2019,05,08,01,27,11.20
2019,05,08,01,28,11.20
2019,05,08,01,29,11.20
2019,05,08,01,30,11.20
2019,05,08,01,31,11.20
2019,05,08,01,32,11.20
2019,05,08,01,33,11.20
2019,05,08,01,34,11.20
2019,05,08,01,35,11.20
2019,05,08,01,36,11.20
2019,05,08,01,37,11.20
2019,05,08,01,38,11.20
2019,05,08,01,39,11.20
2019,05,08,01,40,11.10
2019,05,08,01,41,11.10
2019,05,08,01,42,11.10
2019,05,08,01,43,11.10
2019,05,08,01,44,11.10
2019,05,08,01,45,11.20
2019,05,08,01,46,11.20
2019,05,08,01,47,11.20
2019,05,08,01,48,11.20
2019,05,08,01,49,11.20
2019,05,08,01,50,11.30
2019,05,08,01,51,11.30
2019,05,08,01,52,11.30
2019,05,08,01,53,11.30
2019,05,08,01,54,11.30
2019,05,08,01,55,11.30
2019,05,08,01,56,11.30
2019,05,08,01,57,11.30
2019,05,08,01,58,11.30
2019,05,08,01,59,11.30
2019,05,08,02,00,11.30
2019,05,08,02,01,11.30
2019,05,08,02,02,11.30
2019,05,08,02,03,11.20
2019,05,08,02,04,11.20
2019,05,08,02,05,11.20
2019,05,08,02,06,11.20
2019,05,08,02,07,11.20
2019,05,08,02,08,11.20
2019,05,08,02,09,11.10
2019,05,08,02,10,11.10
2019,05,08,02,11,11.10
2019,05,08,02,12,11.10
2019,05,08,02,13,11.10
2019,05,08,02,14,11.00
2019,05,08,02,15,11.00
2019,05,08,02,16,10.90
2019,05,08,02,17,10.90
2019,05,08,02,18,10.90
2019,05,08,02,19,10.90
2019,05,08,02,20,10.90
2019,05,08,02,21,10.80
2019,05,08,02,22,10.80
2019,05,08,02,23,10.80
2019,05,08,02,24,10.80
2019,05,08,02,25,10.80
2019,05,08,02,26,10.80
2019,05,08,02,27,10.80
2019,05,08,02,28,10.80
2019,05,08,02,29,10.70
2019,05,08,02,30,10.70
2019,05,08,02,31,10.70
2019,05,08,02,32,10.70
2019,05,08,02,33,10.70
2019,05,08,02,34,10.70
2019,05,08,02,35,10.70
2019,05,08,02,36,10.70
2019,05,08,02,37,10.70
2019,05,08,02,38,10.70
2019,05,08,02,39,10.70
2019,05,08,02,40,10.70
2019,05,08,02,41,10.70
2019,05,08,02,42,10.70
2019,05,08,02,43,10.70
2019,05,08,02,44,10.70
2019,05,08,02,45,10.70
2019,05,08,02,46,10.70
2019,05,08,02,47,10.70
2019,05,08,02,48,10.70
2019,05,08,02,49,10.70
2019,05,08,02,50,10.60
2019,05,08,02,51,10.60
2019,05,08,02,52,10.60
2019,05,08,02,53,10.60
2019,05,08,02,54,10.60
2019,05,08,02,55,10.60
2019,05,08,02,56,10.50
2019,05,08,02,57,10.50
2019,05,08,02,58,10.50
2019,05,08,02,59,10.50
2019,05,08,03,00,10.50
2019,05,08,03,01,10.40
2019,05,08,03,02,10.40
2019,05,08,03,03,10.40
2019,05,08,03,04,10.40
2019,05,08,03,05,10.40
2019,05,08,03,06,10.40
2019,05,08,03,07,10.40
2019,05,08,03,08,10.40
2019,05,08,03,09,10.40
2019,05,08,03,10,10.40
2019,05,08,03,11,10.40
2019,05,08,03,12,10.40
2019,05,08,03,13,10.40
2019,05,08,03,14,10.40
2019,05,08,03,15,10.40
2019,05,08,03,16,10.40
2019,05,08,03,17,10.40
2019,05,08,03,18,10.40
2019,05,08,03,19,10.40
2019,05,08,03,20,10.30
2019,05,08,03,21,10.30
2019,05,08,03,22,10.30
2019,05,08,03,23,10.30
2019,05,08,03,24,10.30
2019,05,08,03,25,10.30
2019,05,08,03,26,10.30
2019,05,08,03,27,10.30
2019,05,08,03,28,10.30
2019,05,08,03,29,10.30
2019,05,08,03,30,10.30
2019,05,08,03,31,10.30
2019,05,08,03,32,10.30
2019,05,08,03,33,10.30
2019,05,08,03,34,10.30
2019,05,08,03,35,10.30
2019,05,08,03,36,10.30
2019,05,08,03,37,10.30
2019,05,08,03,38,10.30
2019,05,08,03,39,10.20
2019,05,08,03,40,10.20
2019,05,08,03,41,10.20
2019,05,08,03,42,10.20
2019,05,08,03,43,10.20
2019,05,08,03,44,10.20
2019,05,08,03,45,10.20
2019,05,08,03,46,10.20
2019,05,08,03,47,10.20
2019,05,08,03,48,10.20
2019,05,08,03,49,10.20
2019,05,08,03,50,10.20
2019,05,08,03,51,10.20
2019,05,08,03,52,10.20
2019,05,08,03,53,10.20
2019,05,08,03,54,10.20
2019,05,08,03,55,10.20
2019,05,08,03,56,10.20
2019,05,08,03,57,10.20
2019,05,08,03,58,10.20
2019,05,08,03,59,10.20
2019,05,08,04,00,10.20
2019,05,08,04,01,10.20
2019,05,08,04,02,10.20
2019,05,08,04,03,10.20
2019,05,08,04,04,10.30
2019,05,08,04,05,10.30
2019,05,08,04,06,10.30
2019,05,08,04,07,10.20
2019,05,08,04,08,10.20
2019,05,08,04,09,10.20
2019,05,08,04,10,10.20
2019,05,08,04,11,10.20
2019,05,08,04,12,10.20
2019,05,08,04,13,10.20
2019,05,08,04,14,10.20
2019,05,08,04,15,10.20
2019,05,08,04,16,10.20
2019,05,08,04,17,10.20
2019,05,08,04,18,10.20
2019,05,08,04,19,10.20
2019,05,08,04,20,10.20
2019,05,08,04,21,10.10
2019,05,08,04,22,10.10
2019,05,08,04,23,10.10
2019,05,08,04,24,10.10
2019,05,08,04,25,10.10
2019,05,08,04,26,10.10
2019,05,08,04,27,10.10
2019,05,08,04,28,10.10
2019,05,08,04,29,10.10
2019,05,08,04,30,10.10
2019,05,08,04,31,10.10
2019,05,08,04,32,10.10
2019,05,08,04,33,10.10
2019,05,08,04,34,10.10
2019,05,08,04,35,10.10
2019,05,08,04,36,10.10
2019,05,08,04,37,10.10
2019,05,08,04,38,10.00
2019,05,08,04,39,10.00
2019,05,08,04,40,10.00
2019,05,08,04,41,10.00
2019,05,08,04,42,10.00
2019,05,08,04,43,10.10
2019,05,08,04,44,10.00
2019,05,08,04,45,10.00
2019,05,08,04,46,10.00
2019,05,08,04,47,10.00
2019,05,08,04,48,10.00
2019,05,08,04,49,10.00
2019,05,08,04,50,10.00
2019,05,08,04,51,10.00
2019,05,08,04,52,10.00
2019,05,08,04,53,10.00
2019,05,08,04,54,10.00
2019,05,08,04,55,10.00
2019,05,08,04,56,10.00
2019,05,08,04,57,10.00
2019,05,08,04,58,9.90
2019,05,08,04,59,9.90
2019,05,08,05,00,9.90
2019,05,08,05,01,9.90
2019,05,08,05,02,9.90
2019,05,08,05,03,9.90
2019,05,08,05,04,9.90
2019,05,08,05,05,9.90
2019,05,08,05,06,9.90
2019,05,08,05,07,9.90
2019,05,08,05,08,9.90
2019,05,08,05,09,9.90
2019,05,08,05,10,9.90
2019,05,08,05,11,9.90
2019,05,08,05,12,9.90
2019,05,08,05,13,9.90
2019,05,08,05,14,9.90
2019,05,08,05,15,9.90
2019,05,08,05,16,9.90
2019,05,08,05,17,9.90
2019,05,08,05,18,9.90
2019,05,08,05,19,9.90
2019,05,08,05,20,9.90
2019,05,08,05,21,9.90
2019,05,08,05,22,9.90
2019,05,08,05,23,9.90
2019,05,08,05,24,9.90
2019,05,08,05,25,9.90
2019,05,08,05,26,9.90
2019,05,08,05,27,9.90
2019,05,08,05,28,9.90
2019,05,08,05,29,9.90
2019,05,08,05,30,9.90
2019,05,08,05,31,9.90
2019,05,08,05,32,9.90
2019,05,08,05,33,9.90
2019,05,08,05,34,9.90
2019,05,08,05,35,9.90
2019,05,08,05,36,9.90
2019,05,08,05,37,9.90
2019,05,08,05,38,9.90
2019,05,08,05,39,9.90
2019,05,08,05,40,9.90
2019,05,08,05,41,9.80
2019,05,08,05,42,9.80
2019,05,08,05,43,9.80
2019,05,08,05,44,9.80
2019,05,08,05,45,9.80
2019,05,08,05,46,9.80
2019,05,08,05,47,9.80
2019,05,08,05,48,9.80
2019,05,08,05,49,9.80
2019,05,08,05,50,9.80
2019,05,08,05,51,9.80
2019,05,08,05,52,9.80
2019,05,08,05,53,9.80
2019,05,08,05,54,9.80
2019,05,08,05,55,9.80
2019,05,08,05,56,9.80
2019,05,08,05,57,9.80
2019,05,08,05,58,9.80
2019,05,08,05,59,9.80
2019,05,08,06,00,9.80
2019,05,08,06,01,9.80
2019,05,08,06,02,9.80
2019,05,08,06,03,9.80
2019,05,08,06,04,9.80
2019,05,08,06,05,9.80
2019,05,08,06,06,9.80
2019,05,08,06,07,9.80
2019,05,08,06,08,9.80
2019,05,08,06,09,9.90
2019,05,08,06,10,9.90
2019,05,08,06,11,9.90
2019,05,08,06,12,9.90
2019,05,08,06,13,9.90
2019,05,08,06,14,9.90
2019,05,08,06,15,9.90
2019,05,08,06,16,9.90
2019,05,08,06,17,9.90
2019,05,08,06,18,9.90
2019,05,08,06,19,9.90
2019,05,08,06,20,9.90
2019,05,08,06,21,9.90
2019,05,08,06,22,9.90
2019,05,08,06,23,9.90
2019,05,08,06,24,9.90
2019,05,08,06,25,9.90
2019,05,08,06,26,9.90
2019,05,08,06,27,9.90
2019,05,08,06,28,9.90
2019,05,08,06,29,9.90
2019,05,08,06,30,9.90
2019,05,08,06,31,9.90
2019,05,08,06,32,9.90
2019,05,08,06,33,9.90
2019,05,08,06,34,9.90
2019,05,08,06,35,9.90
2019,05,08,06,36,9.90
2019,05,08,06,37,10.00
2019,05,08,06,38,10.00
2019,05,08,06,39,10.00
2019,05,08,06,40,10.10
2019,05,08,06,41,10.10
2019,05,08,06,42,10.10
2019,05,08,06,43,10.10
2019,05,08,06,44,10.20
2019,05,08,06,45,10.20
2019,05,08,06,46,10.20
2019,05,08,06,47,10.30
2019,05,08,06,48,10.30
2019,05,08,06,49,10.30
2019,05,08,06,50,10.40
2019,05,08,06,51,10.40
2019,05,08,06,52,10.40
2019,05,08,06,53,10.50
2019,05,08,06,54,10.60
2019,05,08,06,55,10.60
2019,05,08,06,56,10.70
2019,05,08,06,57,10.70
2019,05,08,06,58,10.70
2019,05,08,06,59,10.70
2019,05,08,07,00,10.70
2019,05,08,07,01,10.80
2019,05,08,07,02,10.80
2019,05,08,07,03,10.80
2019,05,08,07,04,10.90
2019,05,08,07,05,10.90
2019,05,08,07,06,10.90
2019,05,08,07,07,11.00
2019,05,08,07,08,11.00
2019,05,08,07,09,11.00
2019,05,08,07,10,11.10
2019,05,08,07,11,11.10
2019,05,08,07,12,11.10
2019,05,08,07,13,11.10
2019,05,08,07,14,11.20
2019,05,08,07,15,11.20
2019,05,08,07,16,11.20
2019,05,08,07,17,11.30
2019,05,08,07,18,11.30
2019,05,08,07,19,11.30
2019,05,08,07,20,11.40
2019,05,08,07,21,11.50
2019,05,08,07,22,11.50
2019,05,08,07,23,11.60
2019,05,08,07,24,11.60
2019,05,08,07,25,11.70
2019,05,08,07,26,11.80
2019,05,08,07,27,11.80
2019,05,08,07,28,11.90
2019,05,08,07,29,12.00
2019,05,08,07,30,12.10
2019,05,08,07,31,12.20
2019,05,08,07,32,12.20
2019,05,08,07,33,12.30
2019,05,08,07,34,12.30
2019,05,08,07,35,12.40
2019,05,08,07,36,12.40
2019,05,08,07,37,12.40
2019,05,08,07,38,12.50
2019,05,08,07,39,12.50
2019,05,08,07,40,12.60
2019,05,08,07,41,12.60
2019,05,08,07,42,12.70
2019,05,08,07,43,12.70
2019,05,08,07,44,12.80
2019,05,08,07,45,12.90
2019,05,08,07,46,12.90
2019,05,08,07,47,13.00
2019,05,08,07,48,13.00
2019,05,08,07,49,13.00
2019,05,08,07,50,13.10
2019,05,08,07,51,13.10
2019,05,08,07,52,13.10
2019,05,08,07,53,13.10
2019,05,08,07,54,13.10
2019,05,08,07,55,13.10
2019,05,08,07,56,13.10
2019,05,08,07,57,13.10
2019,05,08,07,58,13.00
2019,05,08,07,59,13.00
2019,05,08,08,00,13.00
2019,05,08,08,01,12.90
2019,05,08,08,02,12.90
2019,05,08,08,03,12.90
2019,05,08,08,04,12.90
2019,05,08,08,05,12.80
2019,05,08,08,06,12.80
2019,05,08,08,07,12.80
2019,05,08,08,08,12.80
2019,05,08,08,09,12.80
2019,05,08,08,10,12.90
2019,05,08,08,11,12.90
2019,05,08,08,12,12.90
2019,05,08,08,13,12.90
2019,05,08,08,14,12.90
2019,05,08,08,15,13.00
2019,05,08,08,16,13.10
2019,05,08,08,17,13.10
2019,05,08,08,18,13.10
2019,05,08,08,19,13.20
2019,05,08,08,20,13.20
2019,05,08,08,21,13.20
2019,05,08,08,22,13.30
2019,05,08,08,23,13.30
2019,05,08,08,24,13.30
2019,05,08,08,25,13.40
2019,05,08,08,26,13.40
2019,05,08,08,27,13.50
2019,05,08,08,28,13.60
2019,05,08,08,29,13.60
2019,05,08,08,30,13.60
2019,05,08,08,31,13.60
2019,05,08,08,32,13.50
2019,05,08,08,33,13.50
2019,05,08,08,34,13.40
2019,05,08,08,35,13.40
2019,05,08,08,36,13.30
2019,05,08,08,37,13.20
2019,05,08,08,38,13.20
2019,05,08,08,39,13.10
2019,05,08,08,40,13.10
2019,05,08,08,41,13.10
2019,05,08,08,42,13.10
2019,05,08,08,43,13.10
2019,05,08,08,44,13.10
2019,05,08,08,45,13.20
2019,05,08,08,46,13.20
2019,05,08,08,47,13.30
2019,05,08,08,48,13.40
2019,05,08,08,49,13.40
2019,05,08,08,50,13.50
2019,05,08,08,51,13.60
2019,05,08,08,52,13.60
2019,05,08,08,53,13.70
2019,05,08,08,54,13.70
2019,05,08,08,55,13.70
2019,05,08,08,56,13.80
2019,05,08,08,57,13.80
2019,05,08,08,58,13.90
2019,05,08,08,59,14.00
2019,05,08,09,00,14.10
2019,05,08,09,01,14.20
2019,05,08,09,02,14.20
2019,05,08,09,03,14.30
2019,05,08,09,04,14.30
2019,05,08,09,05,14.40
2019,05,08,09,06,14.50
2019,05,08,09,07,14.60
2019,05,08,09,08,14.70
2019,05,08,09,09,14.80
2019,05,08,09,10,14.80
2019,05,08,09,11,14.80
2019,05,08,09,12,14.80
2019,05,08,09,13,14.90
2019,05,08,09,14,14.90
2019,05,08,09,15,14.90
2019,05,08,09,16,14.90
2019,05,08,09,17,14.90
2019,05,08,09,18,14.90
2019,05,08,09,19,14.90
2019,05,08,09,20,14.90
2019,05,08,09,21,14.90
2019,05,08,09,22,14.90
2019,05,08,09,23,14.90
2019,05,08,09,24,14.90
2019,05,08,09,25,15.00
2019,05,08,09,26,15.00
2019,05,08,09,27,15.10
2019,05,08,09,28,15.30
2019,05,08,09,29,15.40
2019,05,08,09,30,15.40
2019,05,08,09,31,15.50
2019,05,08,09,32,15.60
2019,05,08,09,33,15.60
2019,05,08,09,34,15.70
2019,05,08,09,35,15.70
2019,05,08,09,36,15.70
2019,05,08,09,37,15.70
2019,05,08,09,38,15.70
2019,05,08,09,39,15.60
2019,05,08,09,40,15.60
2019,05,08,09,41,15.50
2019,05,08,09,42,15.40
2019,05,08,09,43,15.30
2019,05,08,09,44,15.40
2019,05,08,09,45,15.40
2019,05,08,09,46,15.50
2019,05,08,09,47,15.60
2019,05,08,09,48,15.70
2019,05,08,09,49,15.70
2019,05,08,09,50,15.70
2019,05,08,09,51,15.70
2019,05,08,09,52,15.70
2019,05,08,09,53,15.60
2019,05,08,09,54,15.50
2019,05,08,09,55,15.50
2019,05,08,09,56,15.50
2019,05,08,09,57,15.50
2019,05,08,09,58,15.60
2019,05,08,09,59,15.70
2019,05,08,10,00,15.70
2019,05,08,10,01,15.70
2019,05,08,10,02,15.70
2019,05,08,10,03,15.70
2019,05,08,10,04,15.70
2019,05,08,10,05,15.70
2019,05,08,10,06,15.70
2019,05,08,10,07,15.70
2019,05,08,10,08,15.60
2019,05,08,10,09,15.60
2019,05,08,10,10,15.70
2019,05,08,10,11,15.70
2019,05,08,10,12,15.80
2019,05,08,10,13,16.00
2019,05,08,10,14,16.10
2019,05,08,10,15,16.30
2019,05,08,10,16,16.50
2019,05,08,10,17,16.60
2019,05,08,10,18,16.70
2019,05,08,10,19,16.70
2019,05,08,10,20,16.70
2019,05,08,10,21,16.70
2019,05,08,10,22,16.70
2019,05,08,10,23,16.80
2019,05,08,10,24,16.90
2019,05,08,10,25,17.00
2019,05,08,10,26,17.10
2019,05,08,10,27,17.10
2019,05,08,10,28,17.00
2019,05,08,10,29,17.00
2019,05,08,10,30,17.00
2019,05,08,10,31,16.90
2019,05,08,10,32,16.80
2019,05,08,10,33,16.70
2019,05,08,10,34,16.50
2019,05,08,10,35,16.30
2019,05,08,10,36,16.20
2019,05,08,10,37,16.00
2019,05,08,10,38,15.90
2019,05,08,10,39,15.70
2019,05,08,10,40,15.50
2019,05,08,10,41,15.40
2019,05,08,10,42,15.30
2019,05,08,10,43,15.20
2019,05,08,10,44,15.10
2019,05,08,10,45,15.10
2019,05,08,10,46,15.10
2019,05,08,10,47,15.00
2019,05,08,10,48,15.00
2019,05,08,10,49,15.00
2019,05,08,10,50,15.10
2019,05,08,10,51,15.10
2019,05,08,10,52,15.10
2019,05,08,10,53,15.20
2019,05,08,10,54,15.10
2019,05,08,10,55,15.00
2019,05,08,10,56,15.00
2019,05,08,10,57,14.90
2019,05,08,10,58,14.90
2019,05,08,10,59,14.90
2019,05,08,11,00,14.90
2019,05,08,11,01,14.80
2019,05,08,11,02,14.80
2019,05,08,11,03,14.70
2019,05,08,11,04,14.70
2019,05,08,11,05,14.70
2019,05,08,11,06,14.70
2019,05,08,11,07,14.70
2019,05,08,11,08,14.70
2019,05,08,11,09,14.70
2019,05,08,11,10,14.70
2019,05,08,11,11,14.70
2019,05,08,11,12,14.60
2019,05,08,11,13,14.60
2019,05,08,11,14,14.60
2019,05,08,11,15,14.60
2019,05,08,11,16,14.70
2019,05,08,11,17,14.80
2019,05,08,11,18,14.90
2019,05,08,11,19,14.90
2019,05,08,11,20,14.80
2019,05,08,11,21,14.80
2019,05,08,11,22,14.80
2019,05,08,11,23,14.90
2019,05,08,11,24,15.00
2019,05,08,11,25,15.10
2019,05,08,11,26,15.10
2019,05,08,11,27,15.20
2019,05,08,11,28,15.10
2019,05,08,11,29,15.00
2019,05,08,11,30,15.00
2019,05,08,11,31,15.00
2019,05,08,11,32,15.00
2019,05,08,11,33,15.00
2019,05,08,11,34,15.10
2019,05,08,11,35,15.10
2019,05,08,11,36,15.10
2019,05,08,11,37,15.10
2019,05,08,11,38,15.20
2019,05,08,11,39,15.30
2019,05,08,11,40,15.50
2019,05,08,11,41,15.60
2019,05,08,11,42,15.70
2019,05,08,11,43,15.70
2019,05,08,11,44,15.80
2019,05,08,11,45,15.90
2019,05,08,11,46,15.90
2019,05,08,11,47,15.90
2019,05,08,11,48,15.90
2019,05,08,11,49,16.00
2019,05,08,11,50,15.90
2019,05,08,11,51,15.90
2019,05,08,11,52,15.90
2019,05,08,11,53,16.00
2019,05,08,11,54,16.00
2019,05,08,11,55,16.10
2019,05,08,11,56,16.20
2019,05,08,11,57,16.30
2019,05,08,11,58,16.30
2019,05,08,11,59,16.30
2019,05,08,12,00,16.30
2019,05,08,12,01,16.30
2019,05,08,12,02,16.40
2019,05,08,12,03,16.40
2019,05,08,12,04,16.40
2019,05,08,12,05,16.40
2019,05,08,12,06,16.40
2019,05,08,12,07,16.40
2019,05,08,12,08,16.40
2019,05,08,12,09,16.40
2019,05,08,12,10,16.40
2019,05,08,12,11,16.30
2019,05,08,12,12,16.30
2019,05,08,12,13,16.30
2019,05,08,12,14,16.40
2019,05,08,12,15,16.40
2019,05,08,12,16,16.40
2019,05,08,12,17,16.40
2019,05,08,12,18,16.40
2019,05,08,12,19,16.40
2019,05,08,12,20,16.50
2019,05,08,12,21,16.60
2019,05,08,12,22,16.80
2019,05,08,12,23,16.90
2019,05,08,12,24,17.10
2019,05,08,12,25,17.20
2019,05,08,12,26,17.30
2019,05,08,12,27,17.50
2019,05,08,12,28,17.70
2019,05,08,12,29,17.80
2019,05,08,12,30,17.80
2019,05,08,12,31,17.80
2019,05,08,12,32,17.90
2019,05,08,12,33,17.90
2019,05,08,12,34,17.80
2019,05,08,12,35,17.80
2019,05,08,12,36,17.80
2019,05,08,12,37,17.70
2019,05,08,12,38,17.70
2019,05,08,12,39,17.80
2019,05,08,12,40,17.80
2019,05,08,12,41,17.80
2019,05,08,12,42,17.70
2019,05,08,12,43,17.60
2019,05,08,12,44,17.60
2019,05,08,12,45,17.60
2019,05,08,12,46,17.60
2019,05,08,12,47,17.50
2019,05,08,12,48,17.40
2019,05,08,12,49,17.30
2019,05,08,12,50,17.10
2019,05,08,12,51,17.00
2019,05,08,12,52,17.00
2019,05,08,12,53,16.90
2019,05,08,12,54,16.90
2019,05,08,12,55,16.90
2019,05,08,12,56,16.90
2019,05,08,12,57,16.90
2019,05,08,12,58,16.90
2019,05,08,12,59,16.90
2019,05,08,13,00,16.90
2019,05,08,13,01,16.90
2019,05,08,13,02,16.90
2019,05,08,13,03,16.90
2019,05,08,13,04,16.90
2019,05,08,13,05,17.00
2019,05,08,13,06,17.00
2019,05,08,13,07,17.10
2019,05,08,13,08,17.20
2019,05,08,13,09,17.20
2019,05,08,13,10,17.30
2019,05,08,13,11,17.40
2019,05,08,13,12,17.50
2019,05,08,13,13,17.50
2019,05,08,13,14,17.50
2019,05,08,13,15,17.60
2019,05,08,13,16,17.60
2019,05,08,13,17,17.60
2019,05,08,13,18,17.60
2019,05,08,13,19,17.70
2019,05,08,13,20,17.80
2019,05,08,13,21,18.00
2019,05,08,13,22,18.20
2019,05,08,13,23,18.40
2019,05,08,13,24,18.70
2019,05,08,13,25,19.00
2019,05,08,13,26,19.20
2019,05,08,13,27,19.40
2019,05,08,13,28,19.50
2019,05,08,13,29,19.50
2019,05,08,13,30,19.60
2019,05,08,13,31,19.60
2019,05,08,13,32,19.70
2019,05,08,13,33,19.90
2019,05,08,13,34,19.90
2019,05,08,13,35,19.90
2019,05,08,13,36,19.80
2019,05,08,13,37,19.70
2019,05,08,13,38,19.70
2019,05,08,13,39,19.70
2019,05,08,13,40,19.60
2019,05,08,13,41,19.70
2019,05,08,13,42,19.70
2019,05,08,13,43,19.90
2019,05,08,13,44,19.90
2019,05,08,13,45,20.00
2019,05,08,13,46,20.10
2019,05,08,13,47,20.20
2019,05,08,13,48,20.20
2019,05,08,13,49,20.30
2019,05,08,13,50,20.30
2019,05,08,13,51,20.30
2019,05,08,13,52,20.30
2019,05,08,13,53,20.20
2019,05,08,13,54,20.30
2019,05,08,13,55,20.20
2019,05,08,13,56,20.20
2019,05,08,13,57,20.10
2019,05,08,13,58,20.10
2019,05,08,13,59,20.10
2019,05,08,14,00,20.20
2019,05,08,14,01,20.30
2019,05,08,14,02,20.40
2019,05,08,14,03,20.40
2019,05,08,14,04,20.40
2019,05,08,14,05,20.40
2019,05,08,14,06,20.40
2019,05,08,14,07,20.30
2019,05,08,14,08,20.30
2019,05,08,14,09,20.30
2019,05,08,14,10,20.40
2019,05,08,14,11,20.50
2019,05,08,14,12,20.50
2019,05,08,14,13,20.60
2019,05,08,14,14,20.70
2019,05,08,14,15,20.80
2019,05,08,14,16,20.80
2019,05,08,14,17,20.70
2019,05,08,14,18,20.60
2019,05,08,14,19,20.50
2019,05,08,14,20,20.40
2019,05,08,14,21,20.40
2019,05,08,14,22,20.40
2019,05,08,14,23,20.50
2019,05,08,14,24,20.40
2019,05,08,14,25,20.50
2019,05,08,14,26,20.50
2019,05,08,14,27,20.60
2019,05,08,14,28,20.60
2019,05,08,14,29,20.70
2019,05,08,14,30,20.80
2019,05,08,14,31,20.90
2019,05,08,14,32,20.90
2019,05,08,14,33,20.90
2019,05,08,14,34,20.80
2019,05,08,14,35,20.80
2019,05,08,14,36,20.80
2019,05,08,14,37,20.70
2019,05,08,14,38,20.80
2019,05,08,14,39,20.80
2019,05,08,14,40,20.80
2019,05,08,14,41,20.90
2019,05,08,14,42,21.00
2019,05,08,14,43,21.00
2019,05,08,14,44,21.00
2019,05,08,14,45,20.90
2019,05,08,14,46,20.90
2019,05,08,14,47,20.80
2019,05,08,14,48,20.70
2019,05,08,14,49,20.60
2019,05,08,14,50,20.60
2019,05,08,14,51,20.60
2019,05,08,14,52,20.60
2019,05,08,14,53,20.60
2019,05,08,14,54,20.70
2019,05,08,14,55,20.70
2019,05,08,14,56,20.80
2019,05,08,14,57,20.90
2019,05,08,14,58,21.00
2019,05,08,14,59,21.10
2019,05,08,15,00,21.10
2019,05,08,15,01,20.90
2019,05,08,15,02,20.70
2019,05,08,15,03,20.60
2019,05,08,15,04,20.60
2019,05,08,15,05,20.50
2019,05,08,15,06,20.40
2019,05,08,15,07,20.30
2019,05,08,15,08,20.10
2019,05,08,15,09,19.90
2019,05,08,15,10,19.60
2019,05,08,15,11,19.20
2019,05,08,15,12,18.90
2019,05,08,15,13,18.70
2019,05,08,15,14,18.50
2019,05,08,15,15,18.40
2019,05,08,15,16,18.30
2019,05,08,15,17,18.20
2019,05,08,15,18,18.20
2019,05,08,15,19,18.10
2019,05,08,15,20,18.00
2019,05,08,15,21,17.90
2019,05,08,15,22,17.80
2019,05,08,15,23,17.80
2019,05,08,15,24,17.80
2019,05,08,15,25,17.80
2019,05,08,15,26,17.80
2019,05,08,15,27,17.90
2019,05,08,15,28,17.90
2019,05,08,15,29,18.00
2019,05,08,15,30,18.00
2019,05,08,15,31,18.00
2019,05,08,15,32,18.10
2019,05,08,15,33,18.20
2019,05,08,15,34,18.20
2019,05,08,15,35,18.20
2019,05,08,15,36,18.20
2019,05,08,15,37,18.20
2019,05,08,15,38,18.20
2019,05,08,15,39,18.20
2019,05,08,15,40,18.30
2019,05,08,15,41,18.40
2019,05,08,15,42,18.50
2019,05,08,15,43,18.60
2019,05,08,15,44,18.70
2019,05,08,15,45,18.80
2019,05,08,15,46,18.80
2019,05,08,15,47,18.80
2019,05,08,15,48,18.80
2019,05,08,15,49,18.70
2019,05,08,15,50,18.70
2019,05,08,15,51,18.60
2019,05,08,15,52,18.60
2019,05,08,15,53,18.60
2019,05,08,15,54,18.60
2019,05,08,15,55,18.70
2019,05,08,15,56,18.70
2019,05,08,15,57,18.70
2019,05,08,15,58,18.70
2019,05,08,15,59,18.70
2019,05,08,16,00,18.70
2019,05,08,16,01,18.80
2019,05,08,16,02,18.90
2019,05,08,16,03,19.10
2019,05,08,16,04,19.10
2019,05,08,16,05,19.20
2019,05,08,16,06,19.20
2019,05,08,16,07,19.10
2019,05,08,16,08,19.00
2019,05,08,16,09,18.90
2019,05,08,16,10,18.80
2019,05,08,16,11,18.80
2019,05,08,16,12,18.80
2019,05,08,16,13,18.80
2019,05,08,16,14,18.80
2019,05,08,16,15,18.80
2019,05,08,16,16,18.90
2019,05,08,16,17,19.00
2019,05,08,16,18,19.20
2019,05,08,16,19,19.40
2019,05,08,16,20,19.50
2019,05,08,16,21,19.60
2019,05,08,16,22,19.70
2019,05,08,16,23,19.60
2019,05,08,16,24,19.60
2019,05,08,16,25,19.60
2019,05,08,16,26,19.70
2019,05,08,16,27,19.70
2019,05,08,16,28,19.70
2019,05,08,16,29,19.70
2019,05,08,16,30,19.70
2019,05,08,16,31,19.60
2019,05,08,16,32,19.50
2019,05,08,16,33,19.40
2019,05,08,16,34,19.50
2019,05,08,16,35,19.50
2019,05,08,16,36,19.60
2019,05,08,16,37,19.70
2019,05,08,16,38,19.70
2019,05,08,16,39,19.60
2019,05,08,16,40,19.60
2019,05,08,16,41,19.60
2019,05,08,16,42,19.50
2019,05,08,16,43,19.40
2019,05,08,16,44,19.30
2019,05,08,16,45,19.30
2019,05,08,16,46,19.20
2019,05,08,16,47,19.30
2019,05,08,16,48,19.30
2019,05,08,16,49,19.40
2019,05,08,16,50,19.40
2019,05,08,16,51,19.40
2019,05,08,16,52,19.20
2019,05,08,16,53,19.10
2019,05,08,16,54,19.00
2019,05,08,16,55,19.00
2019,05,08,16,56,18.90
2019,05,08,16,57,18.80
2019,05,08,16,58,18.80
2019,05,08,16,59,18.80
2019,05,08,17,00,18.70
2019,05,08,17,01,18.80
2019,05,08,17,02,18.80
2019,05,08,17,03,18.80
2019,05,08,17,04,18.80
2019,05,08,17,05,18.70
2019,05,08,17,06,18.70
2019,05,08,17,07,18.70
2019,05,08,17,08,18.70
2019,05,08,17,09,18.80
2019,05,08,17,10,18.80
2019,05,08,17,11,18.70
2019,05,08,17,12,18.70
2019,05,08,17,13,18.80
2019,05,08,17,14,18.90
2019,05,08,17,15,19.00
2019,05,08,17,16,19.00
2019,05,08,17,17,19.10
2019,05,08,17,18,19.20
2019,05,08,17,19,19.30
2019,05,08,17,20,19.30
2019,05,08,17,21,19.40
2019,05,08,17,22,19.50
2019,05,08,17,23,19.60